Home > Weather > Acharnes > Past weeks

Flag for Greece Weather for the Past 2 Weeks in Acharnes, Greece

Now
61 °F

Partly cloudy.


Feels Like: 61 °F
Forecast: 52 / 72 °F
Wind: 3 mph from North

Location: Elefsis Airport

Current Time: Feb 15, 2016 at 1:54:04 AM

Latest Report: Feb 15, 2016 at 12:50 AM


Visibility: N/A

Pressure: 29.89 "Hg

Humidity: 72%

Dew point: 52 °F

Location of AcharnesLocation

Historic Weather in Acharnes — Graph

°F

Acharnes Temperature Yesterday

Maximum temperature yesterday: 70 °F (at 12:50 PM)
Minimum temperature yesterday: 50 °F (at 12:50 AM)
Average temperature yesterday: 59 °F

High & Low Weather Summary for the Past Weeks

 TemperatureHumidityPressure
High70 °F (Feb 2, 11:20 AM)100% (Feb 14, 4:50 AM)30.42 "Hg (Feb 14, 4:50 AM)
Low34 °F (Feb 7, 4:50 AM)26% (Feb 11, 12:50 PM)29.68 "Hg (Feb 13, 2:50 PM)
Average52 °F72%30.07 "Hg
* Reported Jan 30 11:20 PM — Feb 14 11:50 PM, Acharnes, Weather by CustomWeather, © 2016

Note: Actual official high and low records may vary slightly from our data, if they occured in-between our weather recording intervals... More about our weather records

Advertising

Acharnes Weather History for the Previous 24 Hours

 ConditionsComfort  
Time TempWeatherWind HumidityBarometerVisibility
11:50 PM
Sun, Feb 14
61 °FPartly cloudy.3 mph77%29.89 "HgN/A
11:20 PM61 °FPartly cloudy.3 mph77%29.86 "HgN/A
10:50 PM59 °FPartly cloudy.No wind82%29.86 "HgN/A
10:20 PM59 °FPartly cloudy.No wind82%29.86 "HgN/A
9:50 PM61 °FPartly cloudy.3 mph77%29.86 "HgN/A
9:20 PM57 °FPartly cloudy.No wind88%29.86 "HgN/A
8:50 PM57 °FPartly cloudy.No wind82%29.86 "HgN/A
8:20 PM59 °FPartly cloudy.No wind82%29.83 "HgN/A
7:50 PM59 °FPartly cloudy.No wind82%29.83 "HgN/A
7:20 PM61 °FPartly cloudy.No wind77%29.83 "HgN/A
6:50 PM63 °FPassing clouds.6 mph73%29.83 "HgN/A
6:20 PM63 °FPassing clouds.No wind73%29.80 "HgN/A
5:50 PM64 °FScattered clouds.3 mph68%29.80 "HgN/A
5:20 PM66 °FScattered clouds.No wind64%29.80 "HgN/A
4:50 PM66 °FScattered clouds.3 mph68%29.80 "HgN/A
4:20 PM68 °FScattered clouds.3 mph60%29.80 "HgN/A
3:50 PM66 °FScattered clouds.No wind64%29.80 "HgN/A
3:20 PM68 °FBroken clouds.3 mph60%29.80 "HgN/A
2:50 PM68 °FScattered clouds.No wind56%29.80 "HgN/A
2:20 PM70 °FScattered clouds.3 mph57%29.80 "HgN/A
1:50 PM70 °FPartly sunny.5 mph53%29.80 "HgN/A
1:20 PM68 °FPartly sunny.3 mph56%29.80 "HgN/A
12:50 PM70 °FPartly sunny.6 mph53%29.80 "HgN/A
12:20 PM68 °FPartly sunny.5 mph60%29.83 "HgN/A
11:50 AM68 °FBroken clouds.3 mph60%29.83 "HgN/A
11:20 AM66 °FPartly sunny.No wind64%29.83 "HgN/A
10:50 AM63 °FPartly sunny.No wind68%29.83 "HgN/A
10:20 AM61 °FPartly sunny.No wind77%29.83 "HgN/A
9:50 AM57 °FPartly sunny.No wind82%29.83 "HgN/A
9:20 AM55 °FPartly sunny.5 mph88%29.80 "HgN/A
8:50 AM55 °FScattered clouds.3 mph88%29.80 "HgN/A
8:20 AM54 °FScattered clouds.6 mph88%29.80 "HgN/A
7:50 AM52 °FScattered clouds.5 mph88%29.80 "HgN/A
7:20 AM50 °FBroken clouds.5 mph88%29.77 "HgN/A
6:50 AM52 °FPassing clouds.3 mph88%29.80 "HgN/A
5:50 AM52 °FPassing clouds.5 mph88%29.77 "HgN/A
5:20 AM50 °FPassing clouds.No wind88%29.77 "HgN/A
4:50 AM50 °FPassing clouds.No wind100%29.77 "HgN/A
3:50 AM52 °FPassing clouds.5 mph82%29.77 "HgN/A
3:20 AM52 °FPassing clouds.3 mph82%29.77 "HgN/A
2:50 AM52 °FPassing clouds.3 mph82%29.77 "HgN/A
2:20 AM52 °FPassing clouds.3 mph82%29.77 "HgN/A
1:50 AM54 °FPassing clouds.No wind82%29.77 "HgN/A
1:20 AM52 °FPassing clouds.No wind88%29.77 "HgN/A
Weather by CustomWeather, © 2016

See weather overviewHow to use our weather pages